Regional Weather Roundup
Issued by NWS Sioux Falls, SD

Home | Current Version | Previous Version | Text Only | Print | Product List | Glossary On
Versions: 1 2 3 4 5 6 7 8 9 10 11 12 13 14 15 16 17 18 19 20 21 22 23 24 25 26 27 28 29 30 31 32 33 34 35 36 37 38 39 40 41 42 43 44 45 46 47 48 49 50
650
ASUS43 KFSD 242310
RWRFSD

WEATHER ROUNDUP FOR SE SOUTH DAKOTA/SW MINNESOTA/NW IOWA
NATIONAL WEATHER SERVICE SIOUX FALLS SD
600 PM CDT TUE APR 24 2018

NOTE: "FAIR" INDICATES FEW OR NO CLOUDS BELOW 12,000 FEET WITH NO
SIGNIFICANT WEATHER AND OR OBSTRUCTIONS TO VISIBILITY.


SDZ038>040-050-052>070-250000-
SOUTHEAST SOUTH DAKOTA

CITY           SKY/WX    TMP DP  RH WIND       PRES   REMARKS
BROOKINGS      CLOUDY    46  39  76 N15G23    30.27S
CHAMBERLAIN    CLOUDY    44  41  89 N9        30.37S
HURON          CLOUDY    45  39  79 N9        30.34R
MADISON        MOCLDY    43  43 100 NE14      30.28S
MITCHELL       CLOUDY    46  39  76 N15       30.33R
SIOUX FALLS    CLOUDY    46  37  71 N18G28    30.26R
WINNER         LGT RAIN  42  37  82 N14       30.38S
YANKTON        CLOUDY    48  44  86 N13       30.26R
$$

MNZ071-072-080-081-089-090-097-098-250000-
SOUTHWEST MINNESOTA

CITY           SKY/WX    TMP DP  RH WIND       PRES   REMARKS
FAIRMONT       CLOUDY    52  43  71 N18       30.19S
JACKSON        CLOUDY    46  43  87 N10G24    30.22R
LUVERNE        CLOUDY    45  37  76 N10G21    30.25R
MARSHALL       CLOUDY    49  39  68 N17       30.26F
MONTEVIDEO     MOSUNNY   55  37  50 N16G22    30.25F
PIPESTONE      CLOUDY   N/A N/A N/A NE17      30.25S
REDWOOD FALLS  CLOUDY    51  40  65 NW10      30.23F
TRACY          CLOUDY    47  43  85 N16       30.25S
WINDOM         CLOUDY    46  30  53 N15       30.23R
WORTHINGTON    CLOUDY    44  41  89 N21G28    30.23S
$$

IAZ001>003-012>014-020>022-031-032-NEZ013-014-SDZ071-250000-
NORTHWEST IOWA

CITY           SKY/WX    TMP DP  RH WIND       PRES   REMARKS
CHEROKEE       CLOUDY    51  42  69 N13       30.20R
DENISON        CLOUDY    63  43  48 N13G20    30.16R
ESTHERVILLE    CLOUDY    50  43  77 N20       30.18R
LE MARS        CLOUDY    50  43  76 NE16G25   30.21R
ORANGE CITY    LGT RAIN  48  46  93 NE13      30.21R
SHELDON        CLOUDY    48  46  93 N14G24    30.20S FOG
SIOUX CITY     LGT RAIN  53  43  68 N15G25    30.19R
SPENCER        LGT RAIN  51  43  74 N12       30.21R
STORM LAKE     CLOUDY    54  41  62 N21G28    30.17R
$$

ABBREVIATIONS USED IN REMARKS
   TC - TEMPERATURE IN CELSIUS
  WCI - WIND CHILL INDEX
   HX - HEAT INDEX
  VSB - VISIBILITY





USA.gov is the U.S. government's official web portal to all federal, state and local government web resources and services.